Regional Weather Roundup
Issued by NWS

Home | Current Version | Previous Version | Graphics & Text | Print | Product List | Glossary On
Versions: 1 2 3 4 5 6 7 8 9 10 11 12 13 14 15 16 17 18 19 20 21 22 23 24 25 26 27 28 29 30 31 32 33 34 35 36 37 38 39 40 41 42 43 44 45 46 47 48 49 50
613
ASUS45 KCYS 060310
RWRWY

WYOMING REGIONAL WEATHER ROUNDUP
NATIONAL WEATHER SERVICE CHEYENNE WY
800 PM MST MON DEC 05 2016

NOTE:  "FAIR" INDICATES FEW OR NO CLOUDS BELOW 12,000 FEET
WITH NO SIGNIFICANT WEATHER AND/OR OBSTRUCTIONS TO VISIBILITY.

WYZ001-060400-
YELLOWSTONE NATIONAL PARK

CITY           SKY/WX    TMP DP  RH WIND       PRES   REMARKS
LK YELLOWSTONE   N/A     -4  -9  79 W7        29.83S WCI -18
W YELLOWSTONE  NOT AVBL

$$
WYZ002>013-054>058-071-098>099-060400-
NORTHERN WYOMING

CITY           SKY/WX    TMP DP  RH WIND       PRES   REMARKS
JACKSON        FAIR       0   0 100 S3        29.92S
CODY           FAIR       3  -1  83 S3        29.94S
GREYBULL       MOCLDY    17   8  67 W10       29.98R WCI   5
WORLAND        FAIR      12   8  84 SW7       29.98S WCI   1
SHERIDAN       FAIR      13   2  61 W13       29.97S WCI  -2
BUFFALO        FAIR      12   4  70 N5        29.91R WCI   4
GILLETTE       FAIR      11   5  77 NW14      29.92R WCI  -5
HULETT         MOCLDY    14   5  67 W6        29.92R WCI   5
NEWCASTLE      FLURRIES  18  12  79 NW16      29.90R WCI   3

$$
WYZ014>020-022>026-101>103-060400-
CENTRAL WYOMING

CITY           SKY/WX    TMP DP  RH WIND       PRES   REMARKS
BIG PINEY      FAIR      -5 -11  75 E6        29.92S WCI -18
PINEDALE       FAIR       0  -8  71 NE3       29.93S
DUBOIS         FAIR       1  -8  66 NW12      29.85S WCI -15
LANDER         FAIR      12  -5  46 E6        29.92R WCI   3
RIVERTON       FAIR      11   5  77 NE5       29.93R WCI   3
CASPER         CLOUDY    11   7  84 SW7       29.92S WCI   0
DOUGLAS        CLOUDY    15   7  70 N15       29.94R WCI   0

$$
WYZ021-027>030-104>119-060400-
SOUTHERN WYOMING

CITY           SKY/WX    TMP DP  RH WIND       PRES   REMARKS
EVANSTON       FAIR      11 -19  25 SE5       29.92S WCI   3
FORT BRIDGER   FAIR      13 -12  32 CALM      29.96S
ROCK SPRINGS   FAIR       8  -6  52 W10       29.93R WCI  -6
DIXON          FAIR       5  -6  58 CALM      29.96S
RAWLINS        FAIR      11  -9  40 W17G23    29.89R WCI  -6
SARATOGA       FAIR       9  -4  56 W12G20    29.88R WCI  -6
LARAMIE        FAIR       7  -9  48 W14       29.83R WCI -10
CHEYENNE       MOCLDY    17  -6  35 NW17G25   29.87R WCI   1
TORRINGTON     FAIR      18  10  71 W13       29.93R WCI   5
PINE BLUFFS    FAIR      16  12  86 NW17G23   29.87R WCI   0

$$




USA.gov is the U.S. government's official web portal to all federal, state and local government web resources and services.